Zurück zum Katalog

STARLINK-32696

AktivKommunikationVLEO
NORAD 62310·PAYLOAD·🇺🇸 United States

Gestartet Dec 13, 2024 von Vandenberg Space Force Base

Loading…

Nächste Überflüge (nächste 24 Stunden)

TLE

AktuellSource: CelesTrak SupGP

Epoche: Sep 15, 2026, 02:13 UTC

1 62310C 24239K   26258.09284722 -.00001811  00000+0 -53493-4 0  2587
2 62310  53.1601  30.6400 0001136  80.2274 223.6612 15.34395054    19

Verfolge STARLINK-32696 in Echtzeit mit AllMySat

Download on the App Store